When you browse on this site, cookies collect data to enhance your experience and personalize the content and advertising you see.
Visit our Privacy Policy to learn more. By continuing to use the site, you agree to this use of cookies and data.
  • Em Portugal
  • Lista de países
  • Para 7 dias
  • Temperatura da água
  • Mapas de satélite
  • Mapa do tempo
  • Widgets de tempo
  • user-avatar
    Iniciar Sessão

    Previsão horária em Zielonki

    Hoje, 23 Julho, Terça-feira

    Tempo Temperatura Precipitação Vento Pressão Humidade
    00:00 +16°C° 0 mm 2 m/s 763 mmHg 81%
    01:00 +16°C° 0 mm 2 m/s 763 mmHg 85%
    02:00 +16°C° 0 mm 2 m/s 763 mmHg 84%
    03:00 +16°C° 0 mm 2 m/s 763 mmHg 83%
    04:00 +16°C° 0 mm 2 m/s 762 mmHg 82%
    05:00 +16°C° 0.1 mm 1 m/s 763 mmHg 84%
    06:00 +16°C° 0.1 mm 1 m/s 763 mmHg 85%
    07:00 +16°C° 0.1 mm 1 m/s 763 mmHg 87%
    08:00 +16°C° 0 mm 1 m/s 763 mmHg 86%
    09:00 +18°C° 0 mm 1 m/s 763 mmHg 85%
    10:00 +17°C° 0 mm 2 m/s 763 mmHg 84%
    11:00 +18°C° 0 mm 2 m/s 763 mmHg 83%
    12:00 +18°C° 0 mm 2 m/s 763 mmHg 82%
    13:00 +18°C° 0 mm 2 m/s 763 mmHg 82%
    14:00 +18°C° 0 mm 2 m/s 763 mmHg 82%
    15:00 +19°C° 0 mm 2 m/s 763 mmHg 82%
    16:00 +19°C° 0 mm 2 m/s 762 mmHg 83%
    17:00 +20°C° 0 mm 1 m/s 762 mmHg 85%
    18:00 +20°C° 0 mm 1 m/s 762 mmHg 87%
    19:00 +20°C° 0 mm 1 m/s 762 mmHg 90%
    20:00 +20°C° 0 mm 1 m/s 762 mmHg 92%
    21:00 +19°C° 0 mm 1 m/s 762 mmHg 93%
    22:00 +19°C° 0 mm 1 m/s 762 mmHg 95%
    23:00 +19°C° 0 mm 1 m/s 762 mmHg 96%

    Amanhã, 24 Julho, Quarta-feira

    Tempo Temperatura Precipitação Vento Pressão Humidade
    00:00 +19°C° 0 mm 1 m/s 762 mmHg 96%
    01:00 +19°C° 0 mm 1 m/s 762 mmHg 96%
    02:00 +19°C° 0 mm 1 m/s 762 mmHg 96%
    03:00 +19°C° 0 mm 1 m/s 762 mmHg 96%
    04:00 +18°C° 0 mm 1 m/s 761 mmHg 96%
    05:00 +19°C° 0 mm 1 m/s 761 mmHg 93%
    06:00 +20°C° 0 mm 1 m/s 761 mmHg 90%
    07:00 +21°C° 0 mm 1 m/s 762 mmHg 86%
    08:00 +22°C° 0.2 mm 1 m/s 762 mmHg 82%
    09:00 +24°C° 0.2 mm 2 m/s 762 mmHg 79%
    10:00 +25°C° 0.2 mm 2 m/s 762 mmHg 75%
    11:00 +25°C° 0.3 mm 2 m/s 762 mmHg 72%
    12:00 +26°C° 0.3 mm 2 m/s 762 mmHg 69%
    13:00 +26°C° 0.3 mm 2 m/s 762 mmHg 66%
    14:00 +26°C° 0 mm 2 m/s 762 mmHg 65%
    15:00 +26°C° 0 mm 3 m/s 762 mmHg 65%
    16:00 +26°C° 0 mm 3 m/s 762 mmHg 64%
    17:00 +25°C° 0 mm 3 m/s 761 mmHg 71%
    18:00 +22°C° 0 mm 3 m/s 761 mmHg 77%
    19:00 +21°C° 0 mm 2 m/s 761 mmHg 84%
    20:00 +20°C° 0 mm 2 m/s 762 mmHg 87%
    21:00 +18°C° 0 mm 2 m/s 762 mmHg 90%
    22:00 +18°C° 0 mm 1 m/s 762 mmHg 93%
    23:00 +18°C° 0 mm 1 m/s 762 mmHg 93%

    Depois de amanhã, 25 Julho, Quinta-feira

    Tempo Temperatura Precipitação Vento Pressão Humidade
    00:00 +16°C° 0 mm 1 m/s 762 mmHg 93%
    01:00 +16°C° 0 mm 1 m/s 762 mmHg 92%
    02:00 +16°C° 0 mm 1 m/s 762 mmHg 92%
    03:00 +16°C° 0 mm 1 m/s 762 mmHg 92%
    04:00 +15°C° 0 mm 1 m/s 763 mmHg 92%
    05:00 +18°C° 0 mm 1 m/s 763 mmHg 86%
    06:00 +19°C° 0 mm 1 m/s 763 mmHg 81%
    07:00 +20°C° 0 mm 2 m/s 763 mmHg 75%
    08:00 +21°C° 0 mm 2 m/s 763 mmHg 70%
    09:00 +23°C° 0 mm 2 m/s 763 mmHg 66%
    10:00 +25°C° 0 mm 3 m/s 763 mmHg 61%
    11:00 +25°C° 0 mm 3 m/s 763 mmHg 58%
    12:00 +26°C° 0 mm 3 m/s 763 mmHg 55%
    13:00 +26°C° 0 mm 3 m/s 762 mmHg 52%
    14:00 +26°C° 0 mm 4 m/s 762 mmHg 53%
    15:00 +25°C° 0 mm 4 m/s 762 mmHg 55%
    16:00 +25°C° 0 mm 4 m/s 762 mmHg 57%
    17:00 +22°C° 0 mm 4 m/s 762 mmHg 64%
    18:00 +21°C° 0 mm 3 m/s 762 mmHg 71%
    19:00 +19°C° 0 mm 2 m/s 762 mmHg 78%
    20:00 +18°C° 0 mm 2 m/s 762 mmHg 83%
    21:00 +17°C° 0 mm 2 m/s 762 mmHg 88%
    22:00 +16°C° 0 mm 2 m/s 762 mmHg 93%
    23:00 +16°C° 0 mm 2 m/s 762 mmHg 94%

    26 Julho, Sexta-feira

    Tempo Temperatura Precipitação Vento Pressão Humidade
    00:00 +16°C° 0 mm 2 m/s 762 mmHg 95%
    01:00 +16°C° 0 mm 2 m/s 762 mmHg 96%
    02:00 +16°C° 0 mm 2 m/s 762 mmHg 96%
    03:00 +16°C° 0 mm 2 m/s 762 mmHg 96%
    04:00 +16°C° 0 mm 2 m/s 762 mmHg 96%
    05:00 +18°C° 0 mm 2 m/s 761 mmHg 92%
    06:00 +19°C° 0 mm 3 m/s 761 mmHg 87%
    07:00 +21°C° 0 mm 3 m/s 761 mmHg 83%
    08:00 +22°C° 0 mm 3 m/s 761 mmHg 75%
    09:00 +23°C° 0 mm 4 m/s 761 mmHg 67%
    10:00 +25°C° 0 mm 4 m/s 761 mmHg 59%
    11:00 +26°C° 0 mm 4 m/s 761 mmHg 58%
    12:00 +26°C° 0 mm 4 m/s 761 mmHg 57%
    13:00 +26°C° 0 mm 5 m/s 760 mmHg 56%
    14:00 +25°C° 0.1 mm 5 m/s 760 mmHg 59%
    15:00 +25°C° 0.1 mm 5 m/s 760 mmHg 62%
    16:00 +23°C° 0.1 mm 5 m/s 760 mmHg 66%
    17:00 +22°C° 0 mm 5 m/s 760 mmHg 71%
    18:00 +21°C° 0 mm 4 m/s 760 mmHg 76%
    19:00 +20°C° 0 mm 3 m/s 760 mmHg 80%
    20:00 +19°C° 0 mm 3 m/s 760 mmHg 85%
    21:00 +18°C° 0 mm 3 m/s 760 mmHg 89%
    22:00 +17°C° 0 mm 2 m/s 760 mmHg 94%
    23:00 +17°C° 0 mm 2 m/s 760 mmHg 94%

    27 Julho, Sábado

    Tempo Temperatura Precipitação Vento Pressão Humidade
    00:00 +17°C° 0 mm 2 m/s 760 mmHg 94%
    01:00 +17°C° 0 mm 2 m/s 760 mmHg 95%
    02:00 +17°C° 0 mm 2 m/s 759 mmHg 95%
    03:00 +17°C° 0 mm 2 m/s 759 mmHg 95%
    04:00 +17°C° 0 mm 3 m/s 759 mmHg 96%
    05:00 +18°C° 0 mm 3 m/s 759 mmHg 92%
    06:00 +19°C° 0 mm 3 m/s 759 mmHg 87%
    07:00 +21°C° 0 mm 4 m/s 759 mmHg 83%
    08:00 +22°C° 0 mm 4 m/s 759 mmHg 77%
    09:00 +25°C° 0 mm 4 m/s 759 mmHg 71%
    10:00 +27°C° 0 mm 4 m/s 759 mmHg 65%
    11:00 +27°C° 0 mm 4 m/s 759 mmHg 63%
    12:00 +28°C° 0 mm 5 m/s 759 mmHg 61%
    13:00 +28°C° 0 mm 5 m/s 758 mmHg 59%
    14:00 +28°C° 0.1 mm 5 m/s 758 mmHg 61%
    15:00 +28°C° 0.1 mm 5 m/s 758 mmHg 63%
    16:00 +28°C° 0.1 mm 5 m/s 757 mmHg 66%
    17:00 +27°C° 0.1 mm 5 m/s 757 mmHg 71%
    18:00 +26°C° 0.1 mm 4 m/s 757 mmHg 76%
    19:00 +25°C° 0.1 mm 3 m/s 757 mmHg 81%
    20:00 +24°C° 0 mm 3 m/s 757 mmHg 84%
    21:00 +22°C° 0 mm 3 m/s 758 mmHg 87%
    22:00 +21°C° 0 mm 3 m/s 758 mmHg 91%
    23:00 +20°C° 0 mm 3 m/s 758 mmHg 92%

    28 Julho, Domingo

    Tempo Temperatura Precipitação Vento Pressão Humidade
    00:00 +20°C° 0 mm 3 m/s 758 mmHg 92%
    01:00 +20°C° 0 mm 3 m/s 758 mmHg 93%
    02:00 +19°C° 0 mm 3 m/s 758 mmHg 93%
    03:00 +19°C° 0 mm 3 m/s 758 mmHg 94%
    04:00 +19°C° 0 mm 3 m/s 758 mmHg 94%
    05:00 +20°C° 0 mm 3 m/s 758 mmHg 89%
    06:00 +22°C° 0 mm 3 m/s 758 mmHg 83%
    07:00 +24°C° 0 mm 3 m/s 758 mmHg 78%
    08:00 +26°C° 0 mm 4 m/s 758 mmHg 71%
    09:00 +27°C° 0 mm 4 m/s 758 mmHg 64%
    10:00 +29°C° 0 mm 5 m/s 758 mmHg 57%
    11:00 +29°C° 0 mm 5 m/s 758 mmHg 56%
    12:00 +30°C° 0 mm 5 m/s 758 mmHg 55%
    13:00 +30°C° 0 mm 5 m/s 758 mmHg 54%
    14:00 +30°C° 0 mm 5 m/s 758 mmHg 56%
    15:00 +29°C° 0 mm 5 m/s 758 mmHg 57%
    16:00 +29°C° 0 mm 5 m/s 757 mmHg 59%
    17:00 +28°C° 0 mm 5 m/s 757 mmHg 65%
    18:00 +26°C° 0 mm 4 m/s 757 mmHg 71%
    19:00 +25°C° 0 mm 4 m/s 757 mmHg 76%
    20:00 +22°C° 0 mm 4 m/s 758 mmHg 80%
    21:00 +21°C° 0 mm 3 m/s 758 mmHg 83%
    22:00 +20°C° 0 mm 2 m/s 758 mmHg 86%
    23:00 +20°C° 0 mm 2 m/s 758 mmHg 87%
    Mostrar mais